STARLINK-1077 (44960 NORAD) Tracking and Keplerian Element Data

This shows tracking and keplerian element data for the satellite.

Feedback or suggestion? Click here.




ElementValue
Catalog44960
NameSTARLINK-1077
Epoch Orbit1272
Epoch Day87.91667824
Epoch Year2020
RAAN355.8014
Inclination53.0003
Eccentricity0.0001284
Argument of Perigee66.652
Mean Anonmoly167.5012
Mean Motion15.62768751
Decay Rate-0.00015439
L11 44960U 20001AY 20087.91667824 -.00015439 00000-0 -16299-3 0 9990
L22 44960 53.0003 355.8014 0001284 66.6520 167.5012 15.62768751 12724

Live tracking and technical data element details for STARLINK-1077 (NORAD 44960). STARLINK-1077 can be tracked NOW for your location showing map with azimuth and elevation plus other details from your city location.

Track the satellite on the map from your city or location and see movement details for azimuth, elevation, latitude, longitude, range, height, and movement on the map or in text.







IsCatalogInMostPopularTable: catalog: 44960, numindb: 18
Update: records affected: 1



GetName: 44960 STARLINK-1077

Hit Count: updated at: Sat, 28 Mar 2020 20:41:19 GMT